TimeEDT,TemperatureF,Dew PointF,Humidity,Sea Level PressureIn,VisibilityMPH,Wind Direction,Wind SpeedMPH,Gust SpeedMPH,PrecipitationIn,Events,Conditions,WindDirDegrees,DateUTC
12:53 AM,71.1,62.1,73,30.10,10.0,South,5.8,-,N/A,,Mostly Cloudy,170,2012-04-18 04:53:00
1:53 AM,70.0,61.0,73,30.09,10.0,South,5.8,-,N/A,,Partly Cloudy,180,2012-04-18 05:53:00
2:53 AM,69.1,61.0,75,30.08,10.0,SSW,6.9,-,N/A,,Mostly Cloudy,200,2012-04-18 06:53:00
3:53 AM,69.1,60.1,73,30.07,10.0,South,5.8,-,N/A,,Scattered Clouds,180,2012-04-18 07:53:00
4:53 AM,66.9,60.1,79,30.06,10.0,South,5.8,-,N/A,,Clear,180,2012-04-18 08:53:00
5:53 AM,66.0,60.1,81,30.05,10.0,South,4.6,-,N/A,,Clear,190,2012-04-18 09:53:00
6:53 AM,68.0,60.1,76,30.06,10.0,South,5.8,-,N/A,,Clear,190,2012-04-18 10:53:00
8:53 AM,71.1,61.0,70,30.06,10.0,Variable,5.8,-,N/A,,Mostly Cloudy,0,2012-04-18 12:53:00
9:53 AM,75.9,61.0,60,30.07,10.0,SSW,11.5,19.6,N/A,,Clear,200,2012-04-18 13:53:00
10:53 AM,79.0,59.0,50,30.07,10.0,SW,12.7,-,N/A,,Clear,220,2012-04-18 14:53:00
11:53 AM,80.1,59.0,48,30.06,10.0,SSW,12.7,-,N/A,,Clear,210,2012-04-18 15:53:00
12:53 PM,82.9,57.0,41,30.04,10.0,Variable,5.8,17.3,N/A,,Clear,0,2012-04-18 16:53:00
1:53 PM,82.9,53.1,36,30.02,10.0,SSW,6.9,-,N/A,,Mostly Cloudy,200,2012-04-18 17:53:00
2:53 PM,81.0,61.0,50,30.00,10.0,ESE,8.1,-,N/A,,Mostly Cloudy,120,2012-04-18 18:53:00
3:53 PM,81.0,61.0,50,29.98,10.0,ESE,6.9,-,N/A,,Scattered Clouds,120,2012-04-18 19:53:00
4:53 PM,82.0,61.0,49,29.97,10.0,SSE,13.8,-,N/A,,Mostly Cloudy,150,2012-04-18 20:53:00
5:53 PM,79.0,62.1,56,29.97,10.0,SE,12.7,17.3,N/A,,Scattered Clouds,140,2012-04-18 21:53:00
6:53 PM,77.0,61.0,58,29.98,10.0,SSE,10.4,-,N/A,,Scattered Clouds,150,2012-04-18 22:53:00
7:53 PM,75.9,63.0,64,29.98,10.0,South,5.8,-,N/A,,Overcast,170,2012-04-18 23:53:00
8:53 PM,75.9,61.0,60,30.00,10.0,SSE,3.5,-,N/A,,Overcast,150,2012-04-19 00:53:00
9:53 PM,73.9,63.0,68,30.01,10.0,Calm,Calm,-,N/A,,Overcast,0,2012-04-19 01:53:00
10:53 PM,72.0,63.0,73,30.01,10.0,Calm,Calm,-,N/A,,Overcast,0,2012-04-19 02:53:00
11:53 PM,72.0,66.9,84,30.00,10.0,Calm,Calm,-,0.00,,Mostly Cloudy,0,2012-04-19 03:53:00